263  
ASUS44 KMAF 221010  
RWRMAF  
MIDLAND AREA WEATHER ROUNDUP  
NATIONAL WEATHER SERVICE MIDLAND TX  
400 AM CST THU FEB 22 2024  
   
..IN SOUTHWEST TEXAS AND SOUTHEAST NEW MEXICO
 
 
 
CITY SKY/WX TMP DP RH WIND PRES REMARKS
 
ALPINE PTCLDY 49 10 20 S6 30.10F  
ANDREWS CLEAR 55 14 20 NW8 29.96S  
ARTESIA CLEAR 48 14 25 W15 30.00S  
BIG SPRING CLEAR 49 38 65 SE5 29.92S  
CARLSBAD CLEAR 51 16 24 W13 29.98S  
DRYDEN N/A 58 50 75 NW5 29.94F  
FORT STOCKTON CLEAR 63 15 15 W12 29.98F  
GUAD PASS NOT AVBL  
HOBBS CLOUDY 48 10 21 SW12 29.97S  
LAMESA NOT AVBL  
MARFA PTCLDY 47 12 24 W7 30.08F  
MIDLAND AIRPK CLEAR 56 13 18 W10 29.94S  
MIDLAND INTL CLEAR 52 16 24 W9 29.93S  
ODESSA CLEAR 53 12 19 W8 29.95S  
PECOS CLEAR 60 15 17 SW13 29.96F  
PRESIDIO MOCLDY 65 22 19 W6 30.00S  
SEMINOLE CLEAR 52 15 22 CALM 29.98F  
SNYDER CLEAR 51 32 48 W7 29.89R  
WINK CLEAR 58 15 18 W10 29.94F  

   
..OTHER STATIONS IN TEXAS
 
 
 
CITY SKY/WX TMP DP RH WIND PRES REMARKS
 
ABILENE CLEAR 61 51 70 SW8 29.83S  
AMARILLO CLEAR 50 15 24 W14 29.86R  
AUSTIN CLOUDY 66 60 81 SW8 29.90R  
BROWNSVILLE CLEAR 69 63 81 S18G29 29.86F  
CORPUS CHRISTI MOCLDY 64 63 96 S8 29.89F  
DALLAS FTW PTCLDY 64 59 83 S17 29.76F  
DEL RIO MOCLDY 66 58 75 E6 29.88R  
EL PASO CLEAR 57 22 25 VRB7 30.05F  
HOUSTON INT CLOUDY 66 59 78 S8 29.91F  
LUBBOCK CLEAR 45 18 34 W13 29.89F WCI 39  
SAN ANGELO CLEAR 58 51 78 SW7 29.87F  
SAN ANTONIO CLOUDY 65 60 84 S8 29.87F  
WACO CLOUDY 64 59 83 S12 29.85F  
WICHITA FALLS PTCLDY 51 38 60 N13 29.68R  

   
..OTHER LOCATIONS IN NEW MEXICO
 
 
 
CITY SKY/WX TMP DP RH WIND PRES REMARKS
 
ALAMOGORDO PTCLDY 48 14 25 SW8 30.06F  
ALBUQUERQUE CLOUDY 47 24 40 N6 30.10S  
CANNON AFB CLEAR 43 13 29 W17 29.92F WCI 35  
CLOVIS CLEAR 44 14 29 W14 29.94S WCI 37  
HOLLOMAN AFB CLEAR 44 16 32 W5 30.08S  
ROSWELL CLEAR 50 20 30 W12 29.98S  
RUIDOSO CLEAR 41 14 33 W22G29 30.09S WCI 31  
SANTA FE CLEAR 34 19 54 NW8 30.07S WCI 27  
TRUTH OR CONSE CLEAR 46 22 38 NW15 30.09S WCI 40  
TUCUMCARI CLEAR 40 17 39 W13 29.92R WCI 32  

 
 
 
CLICK HERE TO GO TO PREVIOUS BULLETINS.

The Nexlab TX Page
The Nexlab NM Page Main Text Page